Year,Month,Day,Hour,Minute,Value (Times are PST for temperature in C)
2012,08,23,00,00,13.70
2012,08,23,00,01,13.60
2012,08,23,00,02,13.60
2012,08,23,00,03,13.50
2012,08,23,00,04,13.50
2012,08,23,00,05,13.40
2012,08,23,00,06,13.40
2012,08,23,00,07,13.40
2012,08,23,00,08,13.30
2012,08,23,00,09,13.30
2012,08,23,00,10,13.30
2012,08,23,00,11,13.30
2012,08,23,00,12,13.20
2012,08,23,00,13,13.20
2012,08,23,00,14,13.20
2012,08,23,00,15,13.20
2012,08,23,00,16,13.20
2012,08,23,00,17,13.20
2012,08,23,00,18,13.20
2012,08,23,00,19,13.20
2012,08,23,00,20,13.20
2012,08,23,00,21,13.20
2012,08,23,00,22,13.20
2012,08,23,00,23,13.20
2012,08,23,00,24,13.20
2012,08,23,00,25,13.20
2012,08,23,00,26,13.20
2012,08,23,00,27,13.20
2012,08,23,00,28,13.20
2012,08,23,00,29,13.20
2012,08,23,00,30,13.30
2012,08,23,00,31,13.30
2012,08,23,00,32,13.30
2012,08,23,00,33,13.30
2012,08,23,00,34,13.30
2012,08,23,00,35,13.30
2012,08,23,00,36,13.30
2012,08,23,00,37,13.30
2012,08,23,00,38,13.30
2012,08,23,00,39,13.40
2012,08,23,00,40,13.40
2012,08,23,00,41,13.40
2012,08,23,00,42,13.40
2012,08,23,00,43,13.40
2012,08,23,00,44,13.40
2012,08,23,00,45,13.50
2012,08,23,00,46,13.50
2012,08,23,00,47,13.50
2012,08,23,00,48,13.50
2012,08,23,00,49,13.50
2012,08,23,00,50,13.50
2012,08,23,00,51,13.50
2012,08,23,00,52,13.50
2012,08,23,00,53,13.50
2012,08,23,00,54,13.50
2012,08,23,00,55,13.60
2012,08,23,00,56,13.60
2012,08,23,00,57,13.60
2012,08,23,00,58,13.60
2012,08,23,00,59,13.60
2012,08,23,01,00,13.60
2012,08,23,01,01,13.60
2012,08,23,01,02,13.60
2012,08,23,01,03,13.60
2012,08,23,01,04,13.60
2012,08,23,01,05,13.60
2012,08,23,01,06,13.70
2012,08,23,01,07,13.70
2012,08,23,01,08,13.60
2012,08,23,01,09,13.60
2012,08,23,01,10,13.60
2012,08,23,01,11,13.60
2012,08,23,01,12,13.60
2012,08,23,01,13,13.60
2012,08,23,01,14,13.60
2012,08,23,01,15,13.60
2012,08,23,01,16,13.60
2012,08,23,01,17,13.50
2012,08,23,01,18,13.50
2012,08,23,01,19,13.50
2012,08,23,01,20,13.50
2012,08,23,01,21,13.40
2012,08,23,01,22,13.40
2012,08,23,01,23,13.40
2012,08,23,01,24,13.30
2012,08,23,01,25,13.30
2012,08,23,01,26,13.30
2012,08,23,01,27,13.20
2012,08,23,01,28,13.20
2012,08,23,01,29,13.20
2012,08,23,01,30,13.10
2012,08,23,01,31,13.10
2012,08,23,01,32,13.00
2012,08,23,01,33,13.00
2012,08,23,01,34,13.00
2012,08,23,01,35,13.00
2012,08,23,01,36,13.00
2012,08,23,01,37,13.00
2012,08,23,01,38,13.00
2012,08,23,01,39,13.00
2012,08,23,01,40,13.00
2012,08,23,01,41,13.00
2012,08,23,01,42,13.10
2012,08,23,01,43,13.10
2012,08,23,01,44,13.10
2012,08,23,01,45,13.10
2012,08,23,01,46,13.10
2012,08,23,01,47,13.10
2012,08,23,01,48,13.10
2012,08,23,01,49,13.10
2012,08,23,01,50,13.10
2012,08,23,01,51,13.00
2012,08,23,01,52,13.00
2012,08,23,01,53,12.90
2012,08,23,01,54,12.90
2012,08,23,01,55,12.90
2012,08,23,01,56,12.90
2012,08,23,01,57,12.80
2012,08,23,01,58,12.80
2012,08,23,01,59,12.80
2012,08,23,02,00,12.80
2012,08,23,02,01,12.80
2012,08,23,02,02,12.80
2012,08,23,02,03,12.70
2012,08,23,02,04,12.70
2012,08,23,02,05,12.70
2012,08,23,02,06,12.60
2012,08,23,02,07,12.60
2012,08,23,02,08,12.60
2012,08,23,02,09,12.60
2012,08,23,02,10,12.60
2012,08,23,02,11,12.50
2012,08,23,02,12,12.50
2012,08,23,02,13,12.50
2012,08,23,02,14,12.50
2012,08,23,02,15,12.40
2012,08,23,02,16,12.40
2012,08,23,02,17,12.40
2012,08,23,02,18,12.30
2012,08,23,02,19,12.30
2012,08,23,02,20,12.20
2012,08,23,02,21,12.20
2012,08,23,02,22,12.20
2012,08,23,02,23,12.10
2012,08,23,02,24,12.10
2012,08,23,02,25,12.10
2012,08,23,02,26,12.00
2012,08,23,02,27,12.00
2012,08,23,02,28,12.00
2012,08,23,02,29,11.90
2012,08,23,02,30,11.90
2012,08,23,02,31,11.90
2012,08,23,02,32,11.90
2012,08,23,02,33,11.90
2012,08,23,02,34,11.90
2012,08,23,02,35,11.90
2012,08,23,02,36,11.90
2012,08,23,02,37,11.90
2012,08,23,02,38,11.90
2012,08,23,02,39,11.90
2012,08,23,02,40,11.90
2012,08,23,02,41,11.90
2012,08,23,02,42,11.90
2012,08,23,02,43,11.80
2012,08,23,02,44,11.80
2012,08,23,02,45,11.80
2012,08,23,02,46,11.80
2012,08,23,02,47,11.80
2012,08,23,02,48,11.80
2012,08,23,02,49,11.80
2012,08,23,02,50,11.70
2012,08,23,02,51,11.70
2012,08,23,02,52,11.70
2012,08,23,02,53,11.70
2012,08,23,02,54,11.70
2012,08,23,02,55,11.70
2012,08,23,02,56,11.70
2012,08,23,02,57,11.70
2012,08,23,02,58,11.70
2012,08,23,02,59,11.70
2012,08,23,03,00,11.70
2012,08,23,03,01,11.70
2012,08,23,03,02,11.70
2012,08,23,03,03,11.60
2012,08,23,03,04,11.60
2012,08,23,03,05,11.60
2012,08,23,03,06,11.60
2012,08,23,03,07,11.60
2012,08,23,03,08,11.60
2012,08,23,03,09,11.60
2012,08,23,03,10,11.60
2012,08,23,03,11,11.60
2012,08,23,03,12,11.70
2012,08,23,03,13,11.70
2012,08,23,03,14,11.70
2012,08,23,03,15,11.70
2012,08,23,03,16,11.70
2012,08,23,03,17,11.80
2012,08,23,03,18,11.80
2012,08,23,03,19,11.80
2012,08,23,03,20,11.80
2012,08,23,03,21,11.80
2012,08,23,03,22,11.80
2012,08,23,03,23,11.80
2012,08,23,03,24,11.80
2012,08,23,03,25,11.80
2012,08,23,03,26,11.80
2012,08,23,03,27,11.80
2012,08,23,03,28,11.80
2012,08,23,03,29,11.80
2012,08,23,03,30,11.80
2012,08,23,03,31,11.80
2012,08,23,03,32,11.80
2012,08,23,03,33,11.70
2012,08,23,03,34,11.70
2012,08,23,03,35,11.70
2012,08,23,03,36,11.70
2012,08,23,03,37,11.70
2012,08,23,03,38,11.70
2012,08,23,03,39,11.70
2012,08,23,03,40,11.70
2012,08,23,03,41,11.70
2012,08,23,03,42,11.70
2012,08,23,03,43,11.80
2012,08,23,03,44,11.80
2012,08,23,03,45,11.90
2012,08,23,03,46,11.90
2012,08,23,03,47,12.00
2012,08,23,03,48,12.00
2012,08,23,03,49,12.00
2012,08,23,03,50,12.00
2012,08,23,03,51,12.00
2012,08,23,03,52,12.00
2012,08,23,03,53,12.00
2012,08,23,03,54,12.00
2012,08,23,03,55,12.00
2012,08,23,03,56,12.00
2012,08,23,03,57,11.90
2012,08,23,03,58,11.90
2012,08,23,03,59,11.90
2012,08,23,04,00,11.90
2012,08,23,04,01,11.90
2012,08,23,04,02,11.80
2012,08,23,04,03,11.80
2012,08,23,04,04,11.80
2012,08,23,04,05,11.80
2012,08,23,04,06,11.80
2012,08,23,04,07,11.80
2012,08,23,04,08,11.80
2012,08,23,04,09,11.80
2012,08,23,04,10,11.80
2012,08,23,04,11,11.80
2012,08,23,04,12,11.80
2012,08,23,04,13,11.90
2012,08,23,04,14,12.00
2012,08,23,04,15,12.00
2012,08,23,04,16,12.10
2012,08,23,04,17,12.20
2012,08,23,04,18,12.30
2012,08,23,04,19,12.40
2012,08,23,04,20,12.60
2012,08,23,04,21,12.70
2012,08,23,04,22,12.80
2012,08,23,04,23,12.90
2012,08,23,04,24,13.00
2012,08,23,04,25,13.10
2012,08,23,04,26,13.20
2012,08,23,04,27,13.30
2012,08,23,04,28,13.30
2012,08,23,04,29,13.40
2012,08,23,04,30,13.50
2012,08,23,04,31,13.50
2012,08,23,04,32,13.60
2012,08,23,04,33,13.70
2012,08,23,04,34,13.70
2012,08,23,04,35,13.80
2012,08,23,04,36,13.90
2012,08,23,04,37,13.90
2012,08,23,04,38,14.00
2012,08,23,04,39,14.00
2012,08,23,04,40,14.10
2012,08,23,04,41,14.10
2012,08,23,04,42,14.10
2012,08,23,04,43,14.10
2012,08,23,04,44,14.10
2012,08,23,04,45,14.20
2012,08,23,04,46,14.20
2012,08,23,04,47,14.20
2012,08,23,04,48,14.20
2012,08,23,04,49,14.30
2012,08,23,04,50,14.30
2012,08,23,04,51,14.20
2012,08,23,04,52,14.00
2012,08,23,04,53,13.90
2012,08,23,04,54,13.80
2012,08,23,04,55,13.80
2012,08,23,04,56,13.70
2012,08,23,04,57,13.60
2012,08,23,04,58,13.60
2012,08,23,04,59,13.60
2012,08,23,05,00,13.50
2012,08,23,05,01,13.50
2012,08,23,05,02,13.40
2012,08,23,05,03,13.40
2012,08,23,05,04,13.40
2012,08,23,05,05,13.30
2012,08,23,05,06,13.30
2012,08,23,05,07,13.30
2012,08,23,05,08,13.30
2012,08,23,05,09,13.30
2012,08,23,05,10,13.30
2012,08,23,05,11,13.30
2012,08,23,05,12,13.30
2012,08,23,05,13,13.30
2012,08,23,05,14,13.30
2012,08,23,05,15,13.30
2012,08,23,05,16,13.30
2012,08,23,05,17,13.40
2012,08,23,05,18,13.30
2012,08,23,05,19,13.30
2012,08,23,05,20,13.30
2012,08,23,05,21,13.30
2012,08,23,05,22,13.30
2012,08,23,05,23,13.30
2012,08,23,05,24,13.30
2012,08,23,05,25,13.30
2012,08,23,05,26,13.20
2012,08,23,05,27,13.20
2012,08,23,05,28,13.20
2012,08,23,05,29,13.20
2012,08,23,05,30,13.10
2012,08,23,05,31,13.10
2012,08,23,05,32,13.10
2012,08,23,05,33,13.10
2012,08,23,05,34,13.00
2012,08,23,05,35,13.00
2012,08,23,05,36,13.00
2012,08,23,05,37,13.00
2012,08,23,05,38,13.00
2012,08,23,05,39,12.90
2012,08,23,05,40,12.90
2012,08,23,05,41,12.90
2012,08,23,05,42,12.90
2012,08,23,05,43,12.80
2012,08,23,05,44,12.80
2012,08,23,05,45,12.80
2012,08,23,05,46,12.70
2012,08,23,05,47,12.70
2012,08,23,05,48,12.70
2012,08,23,05,49,12.70
2012,08,23,05,50,12.60
2012,08,23,05,51,12.60
2012,08,23,05,52,12.60
2012,08,23,05,53,12.60
2012,08,23,05,54,12.60
2012,08,23,05,55,12.60
2012,08,23,05,56,12.60
2012,08,23,05,57,12.60
2012,08,23,05,58,12.60
2012,08,23,05,59,12.70
2012,08,23,06,00,12.70
2012,08,23,06,01,12.70
2012,08,23,06,02,12.70
2012,08,23,06,03,12.70
2012,08,23,06,04,12.70
2012,08,23,06,05,12.70
2012,08,23,06,06,12.70
2012,08,23,06,07,12.70
2012,08,23,06,08,12.70
2012,08,23,06,09,12.70
2012,08,23,06,10,12.70
2012,08,23,06,11,12.70
2012,08,23,06,12,12.70
2012,08,23,06,13,12.70
2012,08,23,06,14,12.70
2012,08,23,06,15,12.70
2012,08,23,06,16,12.80
2012,08,23,06,17,12.90
2012,08,23,06,18,13.00
2012,08,23,06,19,13.10
2012,08,23,06,20,13.20
2012,08,23,06,21,13.30
2012,08,23,06,22,13.40
2012,08,23,06,23,13.40
2012,08,23,06,24,13.40
2012,08,23,06,25,13.40
2012,08,23,06,26,13.40
2012,08,23,06,27,13.40
2012,08,23,06,28,13.40
2012,08,23,06,29,13.40
2012,08,23,06,30,13.30
2012,08,23,06,31,13.30
2012,08,23,06,32,13.20
2012,08,23,06,33,13.20
2012,08,23,06,34,13.20
2012,08,23,06,35,13.20
2012,08,23,06,36,13.10
2012,08,23,06,37,13.10
2012,08,23,06,38,13.10
2012,08,23,06,39,13.10
2012,08,23,06,40,13.10
2012,08,23,06,41,13.10
2012,08,23,06,42,13.00
2012,08,23,06,43,13.00
2012,08,23,06,44,12.90
2012,08,23,06,45,12.90
2012,08,23,06,46,12.90
2012,08,23,06,47,12.90
2012,08,23,06,48,12.90
2012,08,23,06,49,12.90
2012,08,23,06,50,12.90
2012,08,23,06,51,12.90
2012,08,23,06,52,12.90
2012,08,23,06,53,12.90
2012,08,23,06,54,13.00
2012,08,23,06,55,13.00
2012,08,23,06,56,13.00
2012,08,23,06,57,13.10
2012,08,23,06,58,13.10
2012,08,23,06,59,13.10
2012,08,23,07,00,13.10
2012,08,23,07,01,13.10
2012,08,23,07,02,13.20
2012,08,23,07,03,13.20
2012,08,23,07,04,13.20
2012,08,23,07,05,13.20
2012,08,23,07,06,13.20
2012,08,23,07,07,13.30
2012,08,23,07,08,13.30
2012,08,23,07,09,13.30
2012,08,23,07,10,13.30
2012,08,23,07,11,13.30
2012,08,23,07,12,13.30
2012,08,23,07,13,13.40
2012,08,23,07,14,13.40
2012,08,23,07,15,13.40
2012,08,23,07,16,13.40
2012,08,23,07,17,13.40
2012,08,23,07,18,13.30
2012,08,23,07,19,13.30
2012,08,23,07,20,13.30
2012,08,23,07,21,13.30
2012,08,23,07,22,13.30
2012,08,23,07,23,13.30
2012,08,23,07,24,13.40
2012,08,23,07,25,13.40
2012,08,23,07,26,13.40
2012,08,23,07,27,13.40
2012,08,23,07,28,13.50
2012,08,23,07,29,13.50
2012,08,23,07,30,13.50
2012,08,23,07,31,13.60
2012,08,23,07,32,13.60
2012,08,23,07,33,13.60
2012,08,23,07,34,13.60
2012,08,23,07,35,13.60
2012,08,23,07,36,13.60
2012,08,23,07,37,13.60
2012,08,23,07,38,13.60
2012,08,23,07,39,13.60
2012,08,23,07,40,13.60
2012,08,23,07,41,13.60
2012,08,23,07,42,13.60
2012,08,23,07,43,13.60
2012,08,23,07,44,13.60
2012,08,23,07,45,13.70
2012,08,23,07,46,13.70
2012,08,23,07,47,13.70
2012,08,23,07,48,13.80
2012,08,23,07,49,13.80
2012,08,23,07,50,13.80
2012,08,23,07,51,13.80
2012,08,23,07,52,13.90
2012,08,23,07,53,13.90
2012,08,23,07,54,14.00
2012,08,23,07,55,14.10
2012,08,23,07,56,14.20
2012,08,23,07,57,14.30
2012,08,23,07,58,14.40
2012,08,23,07,59,14.50
2012,08,23,08,00,14.60
2012,08,23,08,01,14.70
2012,08,23,08,02,14.80
2012,08,23,08,03,15.00
2012,08,23,08,04,15.00
2012,08,23,08,05,15.00
2012,08,23,08,06,15.00
2012,08,23,08,07,15.00
2012,08,23,08,08,15.00
2012,08,23,08,09,15.00
2012,08,23,08,10,15.00
2012,08,23,08,11,15.00
2012,08,23,08,12,15.00
2012,08,23,08,13,15.10
2012,08,23,08,14,15.10
2012,08,23,08,15,15.20
2012,08,23,08,16,15.20
2012,08,23,08,17,15.30
2012,08,23,08,18,15.40
2012,08,23,08,19,15.40
2012,08,23,08,20,15.50
2012,08,23,08,21,15.60
2012,08,23,08,22,15.70
2012,08,23,08,23,15.80
2012,08,23,08,24,15.80
2012,08,23,08,25,15.90
2012,08,23,08,26,15.90
2012,08,23,08,27,16.00
2012,08,23,08,28,16.10
2012,08,23,08,29,16.20
2012,08,23,08,30,16.20
2012,08,23,08,31,16.30
2012,08,23,08,32,16.30
2012,08,23,08,33,16.40
2012,08,23,08,34,16.30
2012,08,23,08,35,16.30
2012,08,23,08,36,16.30
2012,08,23,08,37,16.30
2012,08,23,08,38,16.20
2012,08,23,08,39,16.10
2012,08,23,08,40,16.10
2012,08,23,08,41,16.10
2012,08,23,08,42,16.10
2012,08,23,08,43,16.10
2012,08,23,08,44,16.20
2012,08,23,08,45,16.20
2012,08,23,08,46,16.30
2012,08,23,08,47,16.30
2012,08,23,08,48,16.40
2012,08,23,08,49,16.50
2012,08,23,08,50,16.60
2012,08,23,08,51,16.60
2012,08,23,08,52,16.60
2012,08,23,08,53,16.60
2012,08,23,08,54,16.60
2012,08,23,08,55,16.60
2012,08,23,08,56,16.50
2012,08,23,08,57,16.50
2012,08,23,08,58,16.60
2012,08,23,08,59,16.60
2012,08,23,09,00,16.60
2012,08,23,09,01,16.60
2012,08,23,09,02,16.60
2012,08,23,09,03,16.70
2012,08,23,09,04,16.70
2012,08,23,09,05,16.70
2012,08,23,09,06,16.70
2012,08,23,09,07,16.70
2012,08,23,09,08,16.70
2012,08,23,09,09,16.60
2012,08,23,09,10,16.60
2012,08,23,09,11,16.60
2012,08,23,09,12,16.60
2012,08,23,09,13,16.60
2012,08,23,09,14,16.60
2012,08,23,09,15,16.60
2012,08,23,09,16,16.60
2012,08,23,09,17,16.60
2012,08,23,09,18,16.60
2012,08,23,09,19,16.60
2012,08,23,09,20,16.50
2012,08,23,09,21,16.50
2012,08,23,09,22,16.50
2012,08,23,09,23,16.50
2012,08,23,09,24,16.50
2012,08,23,09,25,16.40
2012,08,23,09,26,16.40
2012,08,23,09,27,16.40
2012,08,23,09,28,16.40
2012,08,23,09,29,16.40
2012,08,23,09,30,16.40
2012,08,23,09,31,16.50
2012,08,23,09,32,16.50
2012,08,23,09,33,16.60
2012,08,23,09,34,16.60
2012,08,23,09,35,16.60
2012,08,23,09,36,16.70
2012,08,23,09,37,16.70
2012,08,23,09,38,16.80
2012,08,23,09,39,16.90
2012,08,23,09,40,16.90
2012,08,23,09,41,16.90
2012,08,23,09,42,16.90
2012,08,23,09,43,16.90
2012,08,23,09,44,16.90
2012,08,23,09,45,16.90
2012,08,23,09,46,17.00
2012,08,23,09,47,17.00
2012,08,23,09,48,17.00
2012,08,23,09,49,17.00
2012,08,23,09,50,17.00
2012,08,23,09,51,17.00
2012,08,23,09,52,17.10
2012,08,23,09,53,17.10
2012,08,23,09,54,17.10
2012,08,23,09,55,17.10
2012,08,23,09,56,17.10
2012,08,23,09,57,17.10
2012,08,23,09,58,17.10
2012,08,23,09,59,17.10
2012,08,23,10,00,17.10
2012,08,23,10,01,17.10
2012,08,23,10,02,17.20
2012,08,23,10,03,17.20
2012,08,23,10,04,17.10
2012,08,23,10,05,17.10
2012,08,23,10,06,17.10
2012,08,23,10,07,17.10
2012,08,23,10,08,17.10
2012,08,23,10,09,17.10
2012,08,23,10,10,17.10
2012,08,23,10,11,17.10
2012,08,23,10,12,17.20
2012,08,23,10,13,17.20
2012,08,23,10,14,17.20
2012,08,23,10,15,17.30
2012,08,23,10,16,17.30
2012,08,23,10,17,17.30
2012,08,23,10,18,17.30
2012,08,23,10,19,17.30
2012,08,23,10,20,17.40
2012,08,23,10,21,17.40
2012,08,23,10,22,17.30
2012,08,23,10,23,17.30
2012,08,23,10,24,17.20
2012,08,23,10,25,17.00
2012,08,23,10,26,16.90
2012,08,23,10,27,16.90
2012,08,23,10,28,16.90
2012,08,23,10,29,16.90
2012,08,23,10,30,16.90
2012,08,23,10,31,16.80
2012,08,23,10,32,16.80
2012,08,23,10,33,16.80
2012,08,23,10,34,16.80
2012,08,23,10,35,16.90
2012,08,23,10,36,16.90
2012,08,23,10,37,16.90
2012,08,23,10,38,16.90
2012,08,23,10,39,16.90
2012,08,23,10,40,16.90
2012,08,23,10,41,16.90
2012,08,23,10,42,16.90
2012,08,23,10,43,16.90
2012,08,23,10,44,16.90
2012,08,23,10,45,16.90
2012,08,23,10,46,16.90
2012,08,23,10,47,16.80
2012,08,23,10,48,16.70
2012,08,23,10,49,16.70
2012,08,23,10,50,16.70
2012,08,23,10,51,16.80
2012,08,23,10,52,16.80
2012,08,23,10,53,16.80
2012,08,23,10,54,16.80
2012,08,23,10,55,16.80
2012,08,23,10,56,16.80
2012,08,23,10,57,16.70
2012,08,23,10,58,16.70
2012,08,23,10,59,16.70
2012,08,23,11,00,16.70
2012,08,23,11,01,16.80
2012,08,23,11,02,16.90
2012,08,23,11,03,17.00
2012,08,23,11,04,17.10
2012,08,23,11,05,17.10
2012,08,23,11,06,17.00
2012,08,23,11,07,17.00
2012,08,23,11,08,17.00
2012,08,23,11,09,17.00
2012,08,23,11,10,16.90
2012,08,23,11,11,16.90
2012,08,23,11,12,16.80
2012,08,23,11,13,16.70
2012,08,23,11,14,16.70
2012,08,23,11,15,16.70
2012,08,23,11,16,16.70
2012,08,23,11,17,16.70
2012,08,23,11,18,16.70
2012,08,23,11,19,16.60
2012,08,23,11,20,16.60
2012,08,23,11,21,16.50
2012,08,23,11,22,16.50
2012,08,23,11,23,16.50
2012,08,23,11,24,16.50
2012,08,23,11,25,16.50
2012,08,23,11,26,16.60
2012,08,23,11,27,16.60
2012,08,23,11,28,16.60
2012,08,23,11,29,16.60
2012,08,23,11,30,16.60
2012,08,23,11,31,16.60
2012,08,23,11,32,16.60
2012,08,23,11,33,16.70
2012,08,23,11,34,16.70
2012,08,23,11,35,16.70
2012,08,23,11,36,16.70
2012,08,23,11,37,16.60
2012,08,23,11,38,16.60
2012,08,23,11,39,16.60
2012,08,23,11,40,16.60
2012,08,23,11,41,16.60
2012,08,23,11,42,16.60
2012,08,23,11,43,16.60
2012,08,23,11,44,16.60
2012,08,23,11,45,16.60
2012,08,23,11,46,16.60
2012,08,23,11,47,16.70
2012,08,23,11,48,16.60
2012,08,23,11,49,16.60
2012,08,23,11,50,16.60
2012,08,23,11,51,16.70
2012,08,23,11,52,16.80
2012,08,23,11,53,16.70
2012,08,23,11,54,16.70
2012,08,23,11,55,16.80
2012,08,23,11,56,16.80
2012,08,23,11,57,16.80
2012,08,23,11,58,16.80
2012,08,23,11,59,16.90
2012,08,23,12,00,16.90
2012,08,23,12,01,16.80
2012,08,23,12,02,16.80
2012,08,23,12,03,16.70
2012,08,23,12,04,16.80
2012,08,23,12,05,16.80
2012,08,23,12,06,16.80
2012,08,23,12,07,16.80
2012,08,23,12,08,16.80
2012,08,23,12,09,16.80
2012,08,23,12,10,16.80
2012,08,23,12,11,16.80
2012,08,23,12,12,16.80
2012,08,23,12,13,16.70
2012,08,23,12,14,16.70
2012,08,23,12,15,16.70
2012,08,23,12,16,16.70
2012,08,23,12,17,16.70
2012,08,23,12,18,16.70
2012,08,23,12,19,16.70
2012,08,23,12,20,16.70
2012,08,23,12,21,16.80
2012,08,23,12,22,16.80
2012,08,23,12,23,16.80
2012,08,23,12,24,16.80
2012,08,23,12,25,16.80
2012,08,23,12,26,16.80
2012,08,23,12,27,16.80
2012,08,23,12,28,16.80
2012,08,23,12,29,16.80
2012,08,23,12,30,16.80
2012,08,23,12,31,16.90
2012,08,23,12,32,16.90
2012,08,23,12,33,16.90
2012,08,23,12,34,17.00
2012,08,23,12,35,17.10
2012,08,23,12,36,17.10
2012,08,23,12,37,17.20
2012,08,23,12,38,17.20
2012,08,23,12,39,17.30
2012,08,23,12,40,17.40
2012,08,23,12,41,17.40
2012,08,23,12,42,17.50
2012,08,23,12,43,17.70
2012,08,23,12,44,17.70
2012,08,23,12,45,17.60
2012,08,23,12,46,17.60
2012,08,23,12,47,17.50
2012,08,23,12,48,17.40
2012,08,23,12,49,17.40
2012,08,23,12,50,17.30
2012,08,23,12,51,17.30
2012,08,23,12,52,17.30
2012,08,23,12,53,17.30
2012,08,23,12,54,17.40
2012,08,23,12,55,17.40
2012,08,23,12,56,17.40
2012,08,23,12,57,17.40
2012,08,23,12,58,17.40
2012,08,23,12,59,17.40
2012,08,23,13,00,17.40
2012,08,23,13,01,17.50
2012,08,23,13,02,17.60
2012,08,23,13,03,17.80
2012,08,23,13,04,18.00
2012,08,23,13,05,18.10
2012,08,23,13,06,18.30
2012,08,23,13,07,18.30
2012,08,23,13,08,18.30
2012,08,23,13,09,18.20
2012,08,23,13,10,18.10
2012,08,23,13,11,18.10
2012,08,23,13,12,18.00
2012,08,23,13,13,17.90
2012,08,23,13,14,17.90
2012,08,23,13,15,17.80
2012,08,23,13,16,17.70
2012,08,23,13,17,17.80
2012,08,23,13,18,17.80
2012,08,23,13,19,17.80
2012,08,23,13,20,17.80
2012,08,23,13,21,17.90
2012,08,23,13,22,17.80
2012,08,23,13,23,17.80
2012,08,23,13,24,17.90
2012,08,23,13,25,18.00
2012,08,23,13,26,18.10
2012,08,23,13,27,18.10
2012,08,23,13,28,18.00
2012,08,23,13,29,17.90
2012,08,23,13,30,17.90
2012,08,23,13,31,17.90
2012,08,23,13,32,17.90
2012,08,23,13,33,17.90
2012,08,23,13,34,17.90
2012,08,23,13,35,17.90
2012,08,23,13,36,17.90
2012,08,23,13,37,17.90
2012,08,23,13,38,17.90
2012,08,23,13,39,17.90
2012,08,23,13,40,17.90
2012,08,23,13,41,17.90
2012,08,23,13,42,17.90
2012,08,23,13,43,17.90
2012,08,23,13,44,17.80
2012,08,23,13,45,17.80
2012,08,23,13,46,17.90
2012,08,23,13,47,17.90
2012,08,23,13,48,17.90
2012,08,23,13,49,17.80
2012,08,23,13,50,17.90
2012,08,23,13,51,17.90
2012,08,23,13,52,17.80
2012,08,23,13,53,17.80
2012,08,23,13,54,17.80
2012,08,23,13,55,17.80
2012,08,23,13,56,17.80
2012,08,23,13,57,17.90
2012,08,23,13,58,18.10
2012,08,23,13,59,18.20
2012,08,23,14,00,18.30
2012,08,23,14,01,18.30
2012,08,23,14,02,18.30
2012,08,23,14,03,18.30
2012,08,23,14,04,18.30
2012,08,23,14,05,18.30
2012,08,23,14,06,18.30
2012,08,23,14,07,18.20
2012,08,23,14,08,18.20
2012,08,23,14,09,18.20
2012,08,23,14,10,18.20
2012,08,23,14,11,18.20
2012,08,23,14,12,18.10
2012,08,23,14,13,18.10
2012,08,23,14,14,18.20
2012,08,23,14,15,18.20
2012,08,23,14,16,18.20
2012,08,23,14,17,18.30
2012,08,23,14,18,18.30
2012,08,23,14,19,18.20
2012,08,23,14,20,18.20
2012,08,23,14,21,18.10
2012,08,23,14,22,18.10
2012,08,23,14,23,18.10
2012,08,23,14,24,18.10
2012,08,23,14,25,18.10
2012,08,23,14,26,18.10
2012,08,23,14,27,18.10
2012,08,23,14,28,18.10
2012,08,23,14,29,18.10
2012,08,23,14,30,18.00
2012,08,23,14,31,18.00
2012,08,23,14,32,18.00
2012,08,23,14,33,18.00
2012,08,23,14,34,17.90
2012,08,23,14,35,17.90
2012,08,23,14,36,17.80
2012,08,23,14,37,17.80
2012,08,23,14,38,17.80
2012,08,23,14,39,17.70
2012,08,23,14,40,17.70
2012,08,23,14,41,17.70
2012,08,23,14,42,17.70
2012,08,23,14,43,17.70
2012,08,23,14,44,17.80
2012,08,23,14,45,17.70
2012,08,23,14,46,17.60
2012,08,23,14,47,17.60
2012,08,23,14,48,17.50
2012,08,23,14,49,17.50
2012,08,23,14,50,17.40
2012,08,23,14,51,17.40
2012,08,23,14,52,17.40
2012,08,23,14,53,17.40
2012,08,23,14,54,17.30
2012,08,23,14,55,17.30
2012,08,23,14,56,17.40
2012,08,23,14,57,17.40
2012,08,23,14,58,17.50
2012,08,23,14,59,17.60
2012,08,23,15,00,17.60
2012,08,23,15,01,17.60
2012,08,23,15,02,17.60
2012,08,23,15,03,17.60
2012,08,23,15,04,17.60
2012,08,23,15,05,17.60
2012,08,23,15,06,17.50
2012,08,23,15,07,17.50
2012,08,23,15,08,17.50
2012,08,23,15,09,17.60
2012,08,23,15,10,17.60
2012,08,23,15,11,17.60
2012,08,23,15,12,17.70
2012,08,23,15,13,17.70
2012,08,23,15,14,17.80
2012,08,23,15,15,17.80
2012,08,23,15,16,17.80
2012,08,23,15,17,17.80
2012,08,23,15,18,17.80
2012,08,23,15,19,17.80
2012,08,23,15,20,17.70
2012,08,23,15,21,17.70
2012,08,23,15,22,17.70
2012,08,23,15,23,17.80
2012,08,23,15,24,17.80
2012,08,23,15,25,17.80
2012,08,23,15,26,17.90
2012,08,23,15,27,17.90
2012,08,23,15,28,18.00
2012,08,23,15,29,18.00
2012,08,23,15,30,18.10
2012,08,23,15,31,18.10
2012,08,23,15,32,18.20
2012,08,23,15,33,18.20
2012,08,23,15,34,18.10
2012,08,23,15,35,18.10
2012,08,23,15,36,18.10
2012,08,23,15,37,18.10
2012,08,23,15,38,18.00
2012,08,23,15,39,18.00
2012,08,23,15,40,18.00
2012,08,23,15,41,17.90
2012,08,23,15,42,17.90
2012,08,23,15,43,17.90
2012,08,23,15,44,17.90
2012,08,23,15,45,17.80
2012,08,23,15,46,17.80
2012,08,23,15,47,17.80
2012,08,23,15,48,17.80
2012,08,23,15,49,17.80
2012,08,23,15,50,17.80
2012,08,23,15,51,17.70
2012,08,23,15,52,17.70
2012,08,23,15,53,17.70
2012,08,23,15,54,17.70
2012,08,23,15,55,17.70
2012,08,23,15,56,17.70
2012,08,23,15,57,17.80
2012,08,23,15,58,17.80
2012,08,23,15,59,17.90
2012,08,23,16,00,18.00
2012,08,23,16,01,18.10
2012,08,23,16,02,18.20
2012,08,23,16,03,18.20
2012,08,23,16,04,18.30
2012,08,23,16,05,18.20
2012,08,23,16,06,18.20
2012,08,23,16,07,18.20
2012,08,23,16,08,18.20
2012,08,23,16,09,18.20
2012,08,23,16,10,18.20
2012,08,23,16,11,18.20
2012,08,23,16,12,18.20
2012,08,23,16,13,18.10
2012,08,23,16,14,18.20
2012,08,23,16,15,18.20
2012,08,23,16,16,18.10
2012,08,23,16,17,18.10
2012,08,23,16,18,18.00
2012,08,23,16,19,18.00
2012,08,23,16,20,17.90
2012,08,23,16,21,17.90
2012,08,23,16,22,17.90
2012,08,23,16,23,17.90
2012,08,23,16,24,17.90
2012,08,23,16,25,17.90
2012,08,23,16,26,17.90
2012,08,23,16,27,17.90
2012,08,23,16,28,17.90
2012,08,23,16,29,17.90
2012,08,23,16,30,17.90
2012,08,23,16,31,17.90
2012,08,23,16,32,17.80
2012,08,23,16,33,17.80
2012,08,23,16,34,17.70
2012,08,23,16,35,17.70
2012,08,23,16,36,17.70
2012,08,23,16,37,17.70
2012,08,23,16,38,17.60
2012,08,23,16,39,17.70
2012,08,23,16,40,17.70
2012,08,23,16,41,17.70
2012,08,23,16,42,17.70
2012,08,23,16,43,17.70
2012,08,23,16,44,17.70
2012,08,23,16,45,17.80
2012,08,23,16,46,17.80
2012,08,23,16,47,17.80
2012,08,23,16,48,17.80
2012,08,23,16,49,17.70
2012,08,23,16,50,17.70
2012,08,23,16,51,17.70
2012,08,23,16,52,17.70
2012,08,23,16,53,17.60
2012,08,23,16,54,17.60
2012,08,23,16,55,17.60
2012,08,23,16,56,17.60
2012,08,23,16,57,17.60
2012,08,23,16,58,17.60
2012,08,23,16,59,17.60
2012,08,23,17,00,17.60
2012,08,23,17,01,17.60
2012,08,23,17,02,17.60
2012,08,23,17,03,17.60
2012,08,23,17,04,17.60
2012,08,23,17,05,17.60
2012,08,23,17,06,17.60
2012,08,23,17,07,17.60
2012,08,23,17,08,17.60
2012,08,23,17,09,17.60
2012,08,23,17,10,17.60
2012,08,23,17,11,17.60
2012,08,23,17,12,17.60
2012,08,23,17,13,17.60
2012,08,23,17,14,17.70
2012,08,23,17,15,17.70
2012,08,23,17,16,17.80
2012,08,23,17,17,17.80
2012,08,23,17,18,17.80
2012,08,23,17,19,17.80